Terug naar catalogus

STARLINK-32721

ActiefCommunicatieVLEO
NORAD 62438·PAYLOAD·🇺🇸 United States

Gelanceerd Dec 29, 2024 vanaf Vandenberg Space Force Base

Loading…

Volgende Passages (komende 24 uur)

TLE

VersSource: CelesTrak SupGP

Epoch: Sep 14, 2026, 22:33 UTC

1 62438C 24251G   26257.94006944 -.00085265  00000+0 -25178-2 0  2574
2 62438  53.1577 173.5526 0001289  92.4410 194.4236 15.34450122    19

Volg STARLINK-32721 in realtime met AllMySat

Download on the App Store